Temperature
21 21 20 20 20 21 22 23 24 24 24 24 24 24 23 22 21 19 18 18 18 18 18 18 18 18 17 17 18 17 17 17 17 17 17 17 17 17 17 17 17 17 17 17 17 17 17 17 17
20 20 20 21 21 22 22 23 23 23 24 24 24 23 23 21 20 18 18 18 18 17 17 17 17 17 17 17 17 17 17 17 17 17 17 17 17 17 17 17 17 17 17 17 17 17 17 17 17
21 21 21 22 22 23 23 23 23 23 24 24 23 22 21 21 20 18 18 18 18 17 17 17 17 17 17 17 17 17 17 17 17 17 17 17 16 16 16 17 17 17 17 17 17 17 17 17 17
21 21 22 22 23 23 23 23 23 24 24 23 23 22 20 20 19 18 18 18 18 17 17 17 17 17 17 17 17 17 17 17 17 17 17 16 16 16 16 16 16 16 16 17 17 17 17 17 17
22 22 22 23 23 24 24 24 24 23 23 23 22 21 20 19 19 18 18 18 18 17 17 17 17 17 17 17 17 17 17 17 17 17 17 16 16 16 16 16 16 16 16 16 16 17 17 17 17
22 23 22 22 23 23 24 24 24 24 23 23 22 21 19 19 19 18 18 18 18 17 17 17 17 17 17 17 17 17 17 17 17 17 17 17 17 16 16 16 16 16 16 16 16 17 17 17 17
23 23 23 23 23 23 24 24 24 24 23 23 23 21 20 19 18 18 18 18 18 18 17 17 17 17 17 17 17 17 17 17 17 17 17 17 16 16 16 16 16 16 16 16 17 17 17 17 17
23 23 23 23 23 22 23 23 23 23 23 23 23 22 20 19 18 18 18 18 18 18 18 17 17 17 17 17 17 17 17 17 17 17 17 16 16 16 16 16 16 16 16 16 16 17 16 16 16
23 22 22 23 23 23 23 23 23 23 22 22 22 21 20 19 19 18 18 18 18 18 18 18 17 17 17 17 17 17 17 17 17 16 16 16 16 16 16 16 16 16 16 16 16 16 16 16 16
24 22 23 24 24 23 23 23 23 23 23 22 21 20 20 19 19 19 19 19 18 18 18 18 18 17 17 17 17 17 17 17 17 16 16 16 16 16 16 16 16 16 16 16 16 16 16 16 16
24 23 23 24 24 23 23 23 23 23 22 22 21 20 20 20 20 19 19 19 19 18 18 18 18 18 17 17 17 17 17 17 17 17 17 17 17 17 16 16 16 16 16 16 16 16 16 16 16
24 24 24 24 24 23 23 23 23 23 22 22 21 21 20 20 20 20 20 19 19 19 18 18 18 18 18 17 17 17 17 17 17 17 17 17 17 17 17 17 16 16 16 16 16 16 16 16 16
24 24 24 24 24 23 23 23 23 22 22 22 21 21 21 21 20 20 20 19 19 19 18 18 18 18 18 18 17 17 17 17 17 17 17 17 17 17 17 17 17 16 16 16 16 16 16 16 16
24 24 24 24 24 24 23 23 23 22 22 22 21 21 21 21 21 20 20 20 19 19 18 18 18 18 18 18 18 17 17 17 17 17 17 17 17 17 17 17 17 16 16 16 16 16 16 16 16
24 24 24 24 24 24 23 22 23 22 22 22 21 21 21 21 21 20 20 20 19 19 19 18 18 18 18 18 18 17 17 17 17 17 17 17 17 17 17 17 17 17 16 16 16 16 16 16 16
24 24 23 24 24 24 23 21 22 22 22 22 22 21 21 21 21 20 20 20 19 19 19 18 18 18 18 18 17 17 17 17 17 17 17 17 17 17 17 17 16 16 16 16 16 16 16 16 16
24 23 23 24 25 24 23 22 23 23 22 22 22 22 21 21 21 20 20 20 20 19 19 19 18 18 18 18 17 17 17 17 17 17 17 17 17 17 17 17 16 16 16 16 16 16 16 16 16
23 24 24 23 24 24 23 22 23 23 23 22 22 22 22 21 21 21 20 20 20 19 19 19 18 18 18 18 17 17 17 17 17 17 17 17 17 17 17 16 16 16 16 16 16 16 16 16 16
25 24 23 24 25 24 23 23 23 23 23 23 22 22 22 21 21 21 20 20 20 19 19 19 18 18 18 18 17 17 17 17 17 17 17 17 17 17 16 16 16 16 16 16 16 16 16 16 16
24 24 23 24 25 24 23 23 23 23 23 23 23 22 22 21 21 21 20 20 19 19 19 18 18 18 18 17 17 17 17 17 17 17 17 16 16 16 16 16 16 16 16 16 16 16 16 16 16
24 24 23 23 24 24 23 22 23 23 23 23 22 22 22 21 21 20 20 20 19 19 19 18 18 18 18 17 17 17 17 17 17 17 16 16 16 16 16 16 16 16 16 16 15 15 15 15 15
24 24 24 23 23 23 24 22 22 23 23 23 22 22 22 21 21 20 20 19 19 19 19 19 18 18 17 17 17 17 17 17 16 16 16 16 16 16 16 16 16 16 15 15 15 15 15 15 15
24 25 24 24 23 23 24 23 22 23 22 22 23 22 22 21 21 20 20 19 19 19 19 18 18 18 17 17 17 17 17 17 16 16 16 16 16 16 16 16 16 16 15 15 15 15 15 15 15
25 24 24 24 23 22 24 23 22 23 23 23 23 22 22 21 21 20 20 19 19 19 18 18 18 18 17 17 17 17 17 17 16 16 16 16 16 16 16 16 16 15 15 15 15 15 15 15 15
25 23 22 22 22 22 24 24 23 24 24 24 23 23 22 21 21 20 19 19 19 18 18 18 18 17 17 17 17 17 17 16 16 16 16 16 16 16 16 16 15 15 15 15 15 15 14 14 14
24 23 21 21 22 23 24 23 23 25 24 24 24 23 22 21 21 20 19 19 19 18 18 18 17 17 17 17 17 17 17 16 16 16 16 16 16 15 15 15 15 15 15 15 15 14 14 14 14
24 24 24 23 23 23 23 24 24 24 24 24 23 23 22 21 20 20 19 19 18 18 18 18 17 17 17 17 17 16 16 16 16 16 16 16 15 15 15 15 15 15 15 15 15 14 14 14 14
24 24 24 23 22 22 23 23 23 23 23 23 23 22 22 21 20 20 19 19 18 18 18 17 17 17 17 17 16 16 16 16 16 15 15 15 15 15 15 15 15 15 15 14 14 14 14 14 14
24 24 23 23 23 22 21 22 24 23 23 22 22 22 21 21 20 19 19 18 18 18 18 17 17 17 17 17 16 16 16 16 15 15 15 15 15 15 15 15 15 14 14 14 14 14 13 13 13
24 24 23 21 22 23 22 22 24 24 23 23 22 21 21 20 20 19 19 18 18 18 17 17 17 17 17 16 16 16 15 15 15 15 15 15 15 15 15 14 14 14 14 14 14 13 13 13 13
Wind_Speed
6 8 5 2 2 2 2 4 7 7 7 8 9 9 11 12 8 8 3 4 8 11 13 12 11 10 10 10 10 9 9 9 9 9 9 9 9 10 10 11 11 11 11 11 12 11 11 11 11
7 5 3 3 2 0 4 6 8 8 6 5 8 11 12 11 11 8 4 5 9 12 13 12 11 11 10 10 10 10 9 9 9 9 9 9 9 9 10 10 11 11 11 11 11 11 11 11 10
9 6 3 2 1 3 4 6 7 7 6 6 7 9 8 7 9 6 6 6 10 12 13 12 11 11 10 10 10 10 10 10 10 9 9 9 10 9 10 10 10 10 11 11 11 11 11 10 10
4 3 2 1 4 6 6 5 5 5 6 6 7 8 8 9 6 8 8 9 10 12 14 12 11 11 11 11 10 10 10 10 10 10 10 10 10 10 10 10 9 10 10 10 10 10 10 10 9
3 3 1 1 4 6 6 5 6 6 5 7 9 9 8 9 10 10 8 8 10 11 13 12 11 11 11 11 11 11 10 10 10 10 10 10 10 10 10 9 9 9 9 10 10 10 10 10 9
2 2 1 2 5 6 5 5 6 8 7 7 9 9 6 8 9 8 7 7 10 10 12 12 11 11 11 10 10 10 10 10 10 10 10 10 10 10 9 10 10 10 10 10 10 10 9 9 8
3 3 0 3 5 5 5 5 6 7 8 6 5 7 7 8 7 7 7 7 8 8 9 10 11 11 11 10 10 9 9 9 9 10 10 9 9 10 10 10 10 10 10 10 9 9 8 7 6
3 2 0 3 4 4 4 4 5 7 6 4 4 6 8 9 7 7 6 6 7 6 7 8 9 11 11 10 9 9 8 8 8 8 8 8 8 9 9 10 9 9 9 8 7 7 6 4 4
2 1 2 3 4 4 4 4 4 5 5 6 8 10 11 13 10 8 6 5 5 6 6 7 7 7 9 10 9 9 8 8 8 7 7 7 7 8 9 10 9 8 7 6 5 4 4 2 1
1 1 3 4 4 4 4 4 3 4 6 8 10 12 12 11 9 8 7 6 6 5 5 6 6 6 7 7 8 6 6 6 6 6 5 4 6 8 9 9 8 7 6 5 4 3 3 3 1
1 2 3 4 5 4 3 3 3 3 5 6 9 11 10 9 8 7 6 6 6 5 5 6 6 6 6 5 5 4 4 3 3 5 6 5 6 6 8 7 7 6 6 4 4 3 3 3 4
2 3 3 3 4 3 2 2 3 5 5 6 8 9 7 7 6 6 6 6 6 5 5 5 5 5 6 6 4 3 3 2 3 3 4 5 3 2 3 4 4 4 3 3 2 1 4 6 7
3 2 3 3 3 3 4 4 4 5 6 6 7 8 6 5 6 5 6 7 7 6 4 5 4 4 5 5 2 4 3 2 4 2 3 5 3 2 3 3 4 4 4 3 2 4 6 6 7
3 3 3 3 2 2 4 3 2 5 6 6 6 6 5 5 5 5 5 6 6 6 4 4 4 4 6 4 2 3 3 3 3 1 1 4 4 3 3 3 3 3 3 3 4 4 4 4 5
4 3 3 2 2 2 2 2 3 6 6 5 6 6 5 4 4 5 6 5 6 6 5 4 4 4 4 4 3 3 2 3 3 2 2 3 4 3 4 3 3 3 5 5 5 5 4 4 4
6 4 2 3 3 2 2 2 4 6 6 5 4 5 5 4 4 4 5 5 5 5 5 6 4 5 5 4 3 2 2 3 3 3 2 3 4 6 5 3 2 4 5 4 3 2 3 3 3
5 4 3 2 3 2 2 2 4 5 5 5 5 5 5 6 6 5 5 5 5 5 6 6 5 4 4 4 3 2 2 3 2 3 3 2 4 5 5 3 2 4 4 3 2 3 3 3 3
2 1 1 1 3 3 2 2 4 5 4 4 4 6 6 5 5 6 6 5 4 4 6 6 5 5 5 3 2 2 2 2 2 3 3 4 4 4 5 2 3 4 3 3 2 3 2 2 1
2 1 0 0 2 2 2 3 5 5 4 3 3 4 5 5 5 5 6 6 4 4 5 6 5 4 4 3 2 2 2 1 1 2 4 3 3 3 4 2 2 3 3 2 2 2 2 1 1
2 2 1 2 1 1 3 4 5 5 5 3 3 3 4 5 5 5 5 5 5 4 4 5 5 4 4 3 3 2 2 2 2 2 2 2 1 2 3 3 2 2 3 2 2 2 1 0 0
2 2 2 2 2 3 4 4 6 7 6 5 3 3 4 5 5 6 5 4 5 5 4 5 5 5 4 4 3 2 2 2 2 2 1 2 2 3 4 2 3 2 2 2 2 2 1 0 2
2 0 1 3 4 4 4 2 5 7 7 6 5 4 4 5 5 5 5 5 4 4 4 4 5 5 4 4 3 3 2 2 2 2 2 1 2 3 3 2 2 2 2 2 2 2 1 1 1
2 2 4 6 6 5 5 3 4 7 6 7 6 6 5 6 6 6 5 5 4 4 3 3 4 5 4 4 3 2 2 2 2 2 3 2 2 3 3 2 2 1 1 1 1 1 1 1 1
3 5 8 7 5 5 5 4 3 5 5 6 7 7 6 6 6 6 6 5 4 4 4 3 4 4 4 4 4 3 2 2 3 2 2 2 2 2 2 2 1 1 1 1 1 2 1 1 1
4 3 3 3 4 3 3 2 2 6 6 6 6 7 7 6 6 6 6 6 5 5 5 4 4 4 3 4 4 3 3 3 3 2 2 1 2 2 1 2 1 1 1 1 2 1 1 1 1
5 4 3 3 2 2 3 2 5 8 7 6 6 7 7 6 5 6 6 6 5 6 5 5 4 4 4 3 3 4 4 3 2 2 2 2 1 1 2 2 2 2 2 2 2 1 1 1 1
4 4 5 6 6 4 1 4 6 7 7 6 6 6 6 6 5 5 5 6 6 6 6 5 5 5 4 3 3 3 4 3 3 2 2 2 1 2 2 2 2 2 2 2 2 1 1 2 1
6 6 4 3 3 3 2 3 4 7 6 5 5 4 5 5 5 5 5 5 6 6 5 5 5 5 5 4 3 3 3 3 3 2 2 2 2 2 2 2 2 2 2 2 2 2 1 2 1
4 4 4 4 4 3 2 1 5 7 6 5 4 4 4 4 5 5 5 5 5 5 5 5 4 5 4 4 3 4 3 3 3 2 2 2 2 2 2 2 2 2 2 2 2 2 1 2 1
4 4 3 3 5 4 3 2 5 7 6 5 4 4 4 5 4 5 5 5 4 5 5 5 4 4 4 3 3 4 4 3 3 3 3 2 2 2 2 2 2 2 2 2 3 2 2 1 1
Wind_Direction
251 240 236 241 256 235 55 56 60 49 52 45 46 59 64 53 59 90 121 91 101 104 103 94 88 87 84 82 80 76 76 77 78 86 87 85 82 80 78 74 72 73 74 71 68 66 66 63 58
259 257 251 235 246 78 70 63 64 60 60 54 54 61 69 65 75 97 100 92 97 97 97 95 92 88 83 79 76 75 76 76 79 87 90 90 89 85 80 76 74 74 75 73 71 68 66 64 58
250 249 256 252 353 52 73 72 77 77 64 63 67 57 56 62 73 98 116 105 94 93 96 97 95 91 86 80 77 79 78 81 83 89 93 91 90 88 82 77 76 77 77 75 72 68 67 65 60
251 251 247 263 60 62 77 89 102 92 69 64 76 73 69 54 77 105 117 107 100 99 100 102 99 93 88 85 82 81 84 85 86 90 94 93 91 90 86 81 79 80 78 75 72 68 67 64 59
241 257 253 86 71 72 74 79 89 82 70 68 77 87 85 77 88 100 105 104 105 106 108 110 105 100 94 89 85 85 86 87 89 93 95 93 92 92 89 86 84 81 79 77 74 71 68 63 56
275 263 256 85 86 78 71 68 79 85 87 85 94 96 92 98 96 98 98 98 103 110 114 118 115 111 104 98 93 91 91 89 89 94 95 96 96 94 91 88 86 83 82 81 77 73 69 63 57
287 293 253 105 95 84 71 55 66 80 78 65 84 100 113 105 101 108 106 101 104 110 120 130 132 124 116 109 105 101 102 102 99 102 105 106 107 105 99 90 89 87 85 86 85 81 77 70 62
296 305 5 85 91 83 77 66 64 68 69 61 56 99 120 124 125 117 112 110 115 118 125 127 130 136 132 125 118 115 116 120 120 120 126 126 124 120 111 102 97 94 93 93 95 98 95 87 71
281 295 35 66 81 94 102 88 72 83 93 79 77 93 113 129 137 137 134 133 130 120 120 125 124 126 127 131 132 138 138 140 145 151 161 163 154 139 120 111 114 113 115 117 122 131 134 125 88
259 27 48 59 84 100 85 80 98 112 101 96 101 107 121 138 148 149 146 138 131 127 123 121 121 126 122 115 127 143 139 146 162 153 156 143 111 113 119 127 135 141 146 148 168 176 185 193 157
51 69 55 66 81 92 91 62 60 99 93 103 116 128 139 149 153 151 141 131 128 133 126 118 123 124 120 116 117 107 109 140 125 113 126 114 111 128 134 145 157 168 171 172 169 199 192 139 102
95 83 86 73 74 87 87 82 72 62 84 106 121 131 139 146 139 135 129 125 120 114 113 115 119 121 119 110 110 127 117 112 97 103 113 114 106 106 111 121 132 142 126 100 81 72 69 67 71
103 96 90 86 88 97 95 86 86 96 106 117 125 131 137 136 129 121 124 128 125 115 110 113 118 121 114 105 144 125 111 90 100 96 122 118 116 109 96 100 93 87 89 87 66 52 55 54 51
111 104 102 113 116 111 105 104 125 113 124 128 128 129 134 133 131 133 134 126 123 121 120 116 131 116 113 122 123 97 110 124 105 85 114 119 121 121 116 96 87 84 92 82 73 72 65 61 64
149 159 151 167 166 134 98 79 113 124 140 139 140 139 139 146 147 147 143 135 134 139 137 131 123 109 103 97 82 92 93 103 101 86 54 83 94 96 94 90 88 86 84 77 69 66 64 71 69
204 204 190 176 176 173 179 123 127 145 146 145 145 145 148 152 157 147 141 138 140 145 144 138 134 128 112 104 82 71 76 84 92 93 60 71 81 87 85 83 91 91 80 80 78 64 66 65 65
224 208 164 155 164 160 176 149 152 158 154 155 158 160 166 165 166 153 151 151 148 155 149 136 137 133 118 119 124 92 78 84 95 94 64 69 75 86 93 84 99 99 86 75 74 66 68 73 72
243 199 163 154 149 143 148 164 161 163 167 171 176 170 163 162 161 156 153 145 144 153 145 138 143 145 135 129 118 103 91 89 78 84 71 53 59 83 94 94 83 87 79 65 65 75 65 78 81
303 1 12 77 161 147 160 183 174 179 180 179 174 173 158 151 144 143 147 142 145 147 135 130 137 142 132 126 119 114 109 92 75 85 80 66 47 65 87 91 84 87 95 96 88 85 79 63 90
216 222 229 276 220 203 184 209 179 170 169 166 176 170 146 135 137 134 140 149 154 142 137 142 143 137 127 130 137 140 138 127 106 80 74 82 55 76 92 103 94 94 103 100 99 98 85 329 17
225 237 243 265 276 239 204 203 174 169 171 163 171 154 144 143 145 144 147 148 148 147 149 148 141 136 129 128 127 118 85 92 94 99 97 69 55 69 77 80 111 132 134 142 123 112 109 350 332
272 272 244 245 253 242 230 218 176 165 164 162 168 156 145 146 139 137 141 145 155 154 149 142 141 132 125 131 133 138 134 132 134 130 131 128 103 90 100 103 103 126 127 137 161 147 137 123 313
287 277 253 248 252 263 239 226 179 164 170 169 170 160 155 144 143 141 143 144 146 139 136 137 132 125 130 136 130 139 134 137 123 115 113 112 97 92 90 85 73 102 125 140 142 125 128 145 185
260 263 261 244 248 256 233 216 172 170 165 167 167 158 157 149 146 145 145 141 140 129 126 122 131 132 135 139 135 143 131 123 113 103 108 111 105 95 86 87 83 120 140 142 155 138 133 105 80
251 281 276 230 215 234 197 175 129 131 136 145 153 155 157 150 151 147 146 146 140 136 137 138 125 126 131 138 139 140 128 120 123 122 118 110 105 102 100 68 47 78 94 99 105 119 140 116 99
252 239 270 298 281 258 189 148 116 119 126 131 135 143 145 141 139 138 139 139 141 143 142 143 143 142 138 138 146 141 131 125 128 130 117 121 116 123 117 105 83 65 71 85 81 93 105 110 120
282 268 271 282 286 289 205 127 123 129 128 127 122 127 136 138 134 132 134 141 146 147 149 155 156 153 150 154 154 143 136 131 129 134 125 124 136 130 117 119 118 103 80 85 92 83 94 77 68
273 295 292 284 297 273 226 183 155 147 136 125 123 135 138 140 144 140 142 143 145 146 150 152 159 160 156 164 172 151 140 140 137 133 134 138 135 118 119 119 120 118 100 83 90 84 98 103 79
243 269 285 293 273 294 301 55 99 121 119 125 128 120 121 134 144 143 137 138 140 143 149 157 161 154 156 165 165 144 140 139 139 144 133 123 124 132 122 128 130 139 141 123 116 116 108 120 137
275 272 282 286 292 278 282 81 86 118 122 118 113 111 116 122 126 128 131 135 139 148 155 160 158 150 149 155 146 143 149 144 149 156 144 154 156 160 150 140 132 138 136 142 136 138 133 134 147
Height
1498 1499 1501 1503 1504 1506 1506 1500 1496 1497 1498 1500 1500 1501 1505 1509 1514 1525 1525 1523 1523 1523 1522 1523 1523 1523 1524 1524 1524 1525 1525 1525 1525 1525 1526 1527 1528 1529 1530 1530 1531 1531 1532 1532 1533 1533 1533 1533 1534
1499 1501 1503 1503 1505 1510 1509 1501 1501 1501 1502 1502 1502 1504 1507 1513 1517 1521 1523 1524 1525 1524 1524 1524 1524 1525 1525 1525 1525 1526 1526 1526 1526 1527 1528 1528 1529 1530 1531 1531 1532 1533 1533 1534 1534 1534 1534 1535 1535
1500 1502 1503 1501 1502 1507 1508 1503 1502 1503 1503 1503 1505 1508 1512 1517 1520 1522 1524 1525 1525 1525 1525 1525 1525 1526 1526 1526 1526 1527 1527 1527 1528 1528 1529 1530 1531 1531 1532 1532 1533 1534 1534 1535 1535 1535 1536 1536 1536
1502 1503 1502 1503 1505 1502 1502 1502 1502 1503 1504 1505 1507 1512 1517 1520 1521 1523 1524 1526 1526 1526 1526 1527 1527 1527 1527 1527 1528 1528 1528 1529 1529 1530 1530 1531 1532 1532 1533 1534 1534 1535 1536 1536 1537 1537 1537 1537 1538
1503 1503 1503 1505 1503 1501 1501 1502 1503 1504 1506 1507 1510 1515 1520 1523 1523 1524 1526 1527 1527 1528 1528 1528 1528 1529 1529 1529 1529 1529 1530 1530 1530 1531 1532 1532 1533 1534 1535 1535 1536 1536 1537 1538 1538 1538 1539 1539 1539
1503 1501 1507 1510 1506 1503 1503 1504 1504 1506 1508 1509 1512 1516 1522 1525 1525 1526 1527 1528 1529 1529 1529 1529 1530 1530 1530 1531 1531 1531 1531 1532 1532 1533 1534 1534 1535 1536 1537 1537 1537 1538 1539 1539 1539 1540 1540 1541 1541
1504 1502 1505 1506 1508 1507 1505 1506 1507 1508 1509 1512 1513 1517 1523 1525 1526 1527 1528 1529 1530 1530 1531 1531 1531 1532 1532 1532 1532 1533 1533 1534 1534 1535 1536 1536 1537 1538 1538 1539 1539 1540 1540 1541 1541 1542 1542 1542 1542
1503 1503 1504 1505 1508 1510 1507 1508 1509 1510 1512 1514 1514 1517 1523 1526 1527 1528 1529 1530 1531 1532 1532 1533 1533 1533 1534 1534 1534 1535 1535 1536 1536 1537 1538 1539 1539 1540 1540 1541 1541 1542 1542 1543 1543 1543 1544 1544 1544
1503 1507 1509 1507 1508 1509 1508 1509 1511 1512 1513 1515 1516 1518 1522 1525 1527 1529 1530 1531 1532 1533 1534 1534 1535 1535 1536 1536 1536 1537 1537 1538 1538 1539 1540 1541 1541 1542 1542 1543 1543 1544 1544 1544 1545 1545 1545 1545 1546
1503 1509 1508 1504 1505 1507 1509 1510 1511 1512 1514 1516 1519 1521 1524 1526 1528 1529 1531 1532 1533 1534 1535 1536 1536 1537 1537 1538 1538 1538 1539 1540 1540 1541 1542 1543 1544 1544 1545 1545 1545 1545 1546 1546 1547 1547 1547 1547 1547
1503 1506 1506 1505 1506 1508 1510 1511 1511 1512 1515 1517 1520 1522 1524 1526 1528 1530 1531 1533 1534 1535 1536 1536 1537 1538 1538 1539 1539 1540 1541 1542 1543 1543 1544 1544 1545 1546 1546 1546 1547 1547 1547 1548 1548 1548 1548 1549 1549
1504 1506 1507 1507 1508 1509 1510 1512 1513 1514 1517 1519 1521 1523 1525 1527 1528 1530 1532 1533 1535 1536 1537 1537 1538 1539 1539 1540 1541 1541 1542 1543 1544 1545 1546 1546 1547 1547 1548 1548 1548 1549 1549 1549 1550 1550 1550 1551 1551
1506 1507 1508 1509 1510 1510 1511 1513 1514 1517 1519 1520 1522 1523 1525 1527 1529 1530 1532 1534 1535 1536 1537 1538 1539 1539 1540 1541 1542 1542 1543 1544 1545 1546 1547 1547 1548 1548 1549 1549 1550 1550 1551 1551 1551 1551 1552 1552 1552
1507 1508 1509 1510 1510 1511 1512 1514 1515 1517 1519 1521 1522 1524 1526 1528 1529 1531 1532 1534 1535 1536 1538 1539 1540 1540 1541 1542 1543 1543 1544 1545 1546 1547 1548 1548 1549 1549 1550 1550 1550 1551 1551 1552 1552 1553 1553 1553 1553
1507 1508 1509 1509 1510 1511 1513 1516 1515 1517 1519 1521 1522 1524 1526 1528 1529 1531 1532 1534 1535 1536 1538 1539 1540 1541 1542 1542 1543 1544 1545 1545 1546 1547 1548 1549 1550 1550 1550 1551 1551 1552 1552 1553 1553 1554 1554 1554 1554
1506 1509 1513 1509 1509 1510 1515 1522 1516 1517 1519 1521 1522 1524 1526 1527 1529 1530 1532 1533 1535 1536 1537 1539 1540 1541 1542 1543 1544 1544 1545 1546 1547 1548 1548 1549 1550 1550 1551 1551 1552 1552 1553 1553 1554 1554 1555 1555 1555
1508 1512 1513 1510 1507 1508 1513 1519 1516 1516 1518 1520 1522 1523 1525 1526 1528 1530 1531 1533 1535 1536 1537 1539 1540 1542 1542 1543 1544 1545 1545 1546 1547 1548 1549 1549 1550 1550 1551 1551 1552 1552 1553 1554 1554 1555 1555 1556 1556
1512 1510 1511 1512 1507 1508 1513 1516 1515 1516 1517 1519 1520 1522 1524 1525 1527 1529 1531 1532 1534 1536 1537 1539 1540 1542 1543 1543 1544 1545 1546 1547 1547 1548 1549 1549 1550 1550 1551 1551 1552 1553 1553 1554 1554 1555 1555 1556 1556
1504 1508 1512 1510 1506 1509 1514 1515 1514 1515 1516 1518 1519 1520 1522 1524 1526 1528 1530 1532 1533 1535 1537 1538 1540 1541 1542 1543 1544 1545 1546 1547 1547 1548 1549 1549 1550 1550 1551 1551 1552 1553 1553 1554 1554 1555 1555 1556 1557
1505 1511 1512 1510 1505 1509 1513 1514 1512 1513 1515 1517 1518 1520 1521 1524 1526 1528 1530 1531 1533 1535 1537 1538 1539 1541 1542 1543 1544 1545 1546 1547 1548 1548 1548 1549 1550 1550 1551 1551 1551 1552 1553 1553 1554 1555 1555 1556 1556
1506 1510 1511 1512 1508 1507 1511 1516 1513 1512 1514 1516 1518 1519 1521 1523 1525 1527 1529 1531 1533 1535 1536 1538 1539 1540 1541 1542 1544 1545 1546 1547 1547 1548 1548 1549 1549 1550 1550 1551 1551 1552 1552 1553 1554 1554 1555 1556 1556
1511 1505 1507 1510 1514 1515 1511 1525 1515 1511 1513 1515 1517 1519 1521 1523 1524 1526 1528 1530 1532 1534 1535 1537 1538 1539 1540 1542 1543 1544 1545 1546 1547 1548 1548 1548 1549 1549 1550 1550 1551 1551 1552 1553 1553 1554 1555 1555 1555
1506 1504 1505 1507 1511 1514 1510 1518 1518 1510 1514 1513 1515 1517 1519 1521 1524 1526 1528 1530 1531 1533 1534 1536 1537 1539 1540 1541 1542 1543 1544 1546 1547 1547 1548 1548 1548 1549 1549 1550 1550 1551 1551 1552 1552 1553 1554 1554 1555
1503 1505 1504 1504 1510 1522 1510 1515 1520 1510 1510 1510 1512 1515 1518 1520 1523 1525 1527 1529 1530 1532 1533 1535 1536 1538 1539 1540 1541 1543 1544 1545 1546 1547 1547 1547 1548 1548 1548 1549 1549 1550 1551 1551 1552 1552 1553 1553 1553
1504 1513 1523 1523 1525 1521 1502 1510 1513 1503 1503 1506 1510 1513 1516 1519 1522 1524 1526 1528 1529 1531 1532 1534 1536 1537 1538 1539 1540 1542 1543 1544 1545 1545 1546 1547 1547 1547 1547 1548 1548 1549 1549 1550 1551 1551 1552 1552 1552
1504 1510 1526 1533 1527 1516 1502 1511 1507 1500 1502 1506 1508 1512 1515 1518 1521 1523 1525 1526 1528 1530 1531 1533 1534 1536 1537 1538 1540 1541 1542 1543 1544 1544 1545 1545 1546 1546 1546 1547 1547 1548 1549 1549 1550 1550 1550 1551 1551
1505 1506 1503 1512 1512 1517 1511 1506 1504 1500 1503 1506 1509 1512 1514 1517 1520 1522 1524 1525 1527 1529 1530 1532 1533 1535 1536 1537 1539 1540 1540 1541 1542 1543 1544 1545 1545 1545 1545 1546 1546 1547 1548 1548 1549 1549 1549 1550 1550
1502 1502 1506 1512 1524 1528 1517 1511 1510 1505 1505 1506 1509 1511 1514 1517 1519 1521 1523 1524 1526 1528 1529 1531 1532 1533 1534 1536 1537 1538 1539 1540 1541 1542 1543 1544 1544 1545 1545 1545 1545 1546 1547 1547 1548 1548 1548 1548 1549
1503 1505 1505 1508 1510 1523 1528 1520 1498 1502 1504 1507 1509 1511 1513 1516 1518 1520 1522 1523 1525 1527 1528 1530 1531 1532 1533 1534 1536 1537 1538 1539 1540 1541 1542 1543 1543 1544 1544 1545 1545 1545 1545 1546 1546 1546 1547 1547 1547
1500 1503 1506 1519 1515 1510 1518 1519 1498 1500 1503 1507 1509 1512 1513 1515 1517 1519 1521 1522 1524 1526 1527 1528 1530 1531 1532 1533 1534 1535 1536 1538 1539 1540 1540 1541 1542 1543 1543 1544 1544 1544 1544 1545 1545 1545 1545 1546 1546